Location: Unspecified
(0.0000°N, 0.0000°E)
Time: 03:07:04
(UTC+00:00)

GALILEO 11 (268) - Visible Passes

Search period start: 27 February 2024 00:00
Search period end: 08 March 2024 00:00
Orbit: 23210 x 23233 km, 55.4° (Epoch: 26 February)

Date Brightness Start Highest point End Pass type
(mag) Time Alt. Az. Time Alt. Az. Time Alt. Az.
27 Feb ? 01:43:32 10° WSW 02:12:17 11° W 02:47:00 10° W visible
28 Feb ? 11:37:20 10° NW 20:36:07 68° E 23:54:11 10° NNE visible
29 Feb ? 22:18:50 10° SW 00:40:16 34° W 10:47:31 10° SSE visible
02 Mar ? 09:08:36 10° NNW 19:01:23 42° E 21:39:41 10° NE visible
03 Mar ? 20:01:36 10° SSW 23:05:51 59° W 08:28:07 10° SE visible
05 Mar ? 06:54:18 10° NNW 17:28:07 18° E 19:04:12 10° NE visible
06 Mar ? 17:43:20 10° SSW 21:30:48 85° W 01:44:42 10° NNE daylight
